Temp
13 13 13 14 15 16 16 16 17 18 17 16 17 17 17 18 18 17 17 16 16 16 15 15 16 16 15 15 15 16 15 15 15 15 15 15 15 15 15 14 14 14 14 14 14 14 14 14 13 13 13 14 14 13 13 13 13 13 13 13 13 12 12 12 11 11 11 11 11 11 11 11 11 11 11 11 11 12 12 12 12 12 12 12 12
13 13 14 15 16 15 15 16 17 18 17 16 17 17 17 18 18 17 17 16 16 16 16 16 16 16 16 16 16 16 16 16 15 15 15 15 15 15 15 15 15 14 14 14 14 14 14 14 14 13 13 13 13 13 13 13 13 13 13 13 13 12 12 12 11 10 10 10 10 10 11 11 11 10 10 10 11 11 11 11 11 11 11 11 12
13 14 14 15 15 14 15 15 15 16 16 16 16 16 17 17 18 18 17 17 16 16 16 16 16 16 16 16 16 16 16 16 16 16 16 16 16 15 15 15 15 15 15 14 14 14 14 14 14 14 14 13 13 13 13 13 13 13 13 12 12 12 12 12 11 10 10 10 10 10 10 10 10 10 10 10 10 10 10 10 10 10 11 11 11
14 14 14 15 15 15 15 15 15 15 16 16 16 15 16 16 16 17 17 17 16 16 16 16 16 16 16 16 16 16 16 16 16 16 16 16 16 16 16 16 15 15 15 15 15 14 14 14 14 14 14 14 14 13 13 13 13 13 12 12 12 12 12 11 11 11 10 10 9 9 9 10 10 9 9 10 10 10 10 10 10 10 10 10 10
14 15 15 15 15 15 15 15 15 15 16 16 15 15 15 15 15 16 16 16 16 15 15 14 14 14 15 16 16 16 16 16 16 16 16 16 16 16 16 16 16 16 16 15 15 15 15 14 14 14 14 14 14 13 13 13 13 12 12 12 12 11 11 11 11 11 10 10 9 9 9 9 9 9 9 9 9 9 9 9 9 9 9 10 10
14 15 15 15 15 15 15 15 15 15 16 15 15 15 15 14 14 14 15 15 15 16 15 14 13 14 14 15 15 16 16 16 16 16 16 16 16 16 16 16 15 15 15 15 15 15 15 15 14 14 14 14 14 13 13 13 13 12 12 12 11 11 11 11 11 10 10 10 9 9 9 9 9 8 8 8 8 8 8 9 9 9 8 9 9
14 15 15 15 15 14 14 15 15 15 15 15 15 16 15 15 14 13 13 13 14 15 16 16 15 15 15 15 15 14 15 16 16 16 16 16 16 16 16 15 15 15 15 15 15 15 15 15 14 14 14 14 14 14 13 13 13 12 12 12 12 11 11 11 11 10 10 9 9 9 8 8 8 8 8 7 7 7 7 7 8 8 7 7 8
14 14 15 15 15 14 15 15 15 15 15 15 15 15 16 15 15 14 14 13 14 14 15 15 15 14 14 14 13 12 13 15 16 15 16 15 15 15 15 15 15 15 15 15 15 15 15 15 15 15 14 14 14 14 13 13 13 12 12 12 12 11 11 11 10 10 9 9 9 8 8 8 8 7 7 7 7 6 6 6 6 6 7 6 6
14 14 14 14 14 15 15 14 14 15 15 15 15 15 15 15 14 15 14 14 15 15 14 15 15 14 13 14 13 12 12 14 15 15 15 15 15 15 15 15 15 15 14 14 14 15 14 14 15 15 14 14 14 14 13 13 13 12 12 12 11 11 11 11 10 10 9 9 9 8 8 8 7 7 7 6 6 5 6 5 5 5 6 6 5
14 14 14 14 14 14 14 14 14 15 15 15 15 15 14 14 15 15 14 14 15 14 14 14 14 14 14 14 14 13 13 13 15 15 15 15 15 14 14 14 14 14 14 14 14 14 14 14 14 14 14 14 14 13 13 13 12 12 12 12 11 11 11 10 10 9 9 9 8 8 8 7 7 7 6 6 6 5 5 5 5 5 5 5 5
14 14 14 14 14 14 14 14 14 14 14 14 14 14 14 14 15 15 14 14 14 13 13 14 14 13 14 14 14 14 13 13 14 14 14 14 14 14 14 14 14 14 14 14 14 14 14 14 14 14 14 14 13 13 13 12 12 12 12 11 11 11 10 10 9 9 9 8 8 8 7 7 7 6 6 6 5 5 5 5 4 4 4 3 3
14 14 14 13 13 14 14 14 14 14 14 14 14 14 14 14 14 14 14 14 13 13 13 14 14 14 14 14 14 14 14 14 14 14 14 14 14 14 14 13 13 14 14 14 13 13 14 14 13 13 13 13 13 13 12 12 12 12 11 11 11 10 10 10 9 9 8 8 8 7 7 6 6 5 5 5 5 5 5 4 4 4 3 2 2
14 15 14 14 13 13 13 13 13 13 14 14 14 14 14 14 14 14 14 14 13 14 14 14 14 14 14 14 14 14 14 14 14 14 14 14 14 14 14 13 13 13 13 13 13 13 13 13 13 13 13 13 12 12 12 12 12 11 11 10 10 10 9 9 9 8 8 7 7 7 6 5 5 5 4 4 4 4 4 4 4 3 3 2 2
15 15 15 15 14 14 13 13 13 13 14 14 14 14 13 13 14 14 14 14 14 14 14 14 14 14 14 14 14 14 14 14 14 14 14 14 14 14 14 14 13 13 13 13 13 13 12 12 12 12 12 12 12 12 12 12 11 11 10 10 10 9 9 9 8 8 7 7 7 6 5 5 4 4 4 4 3 3 3 3 3 3 3 3 2
15 15 15 15 15 15 14 14 14 14 14 14 14 14 14 14 14 14 14 14 14 14 14 14 14 14 14 14 14 14 14 14 14 14 14 14 14 14 14 13 13 13 12 12 12 12 12 12 12 12 12 12 12 12 11 11 11 10 10 9 9 9 8 8 8 7 7 6 6 6 5 5 4 4 4 4 3 3 3 3 3 2 2 2 2
15 15 15 15 15 15 15 15 15 14 14 14 14 14 14 14 14 14 14 14 14 14 15 15 15 15 15 15 14 14 14 14 14 14 14 13 13 13 13 13 12 12 11 11 11 11 11 11 12 12 12 12 11 11 11 10 10 10 9 9 9 8 7 7 7 6 6 6 5 5 5 5 4 4 4 3 3 3 2 2 2 2 2 1 1
14 15 15 14 14 15 15 15 15 15 15 15 15 15 14 14 14 14 14 14 14 14 14 14 14 14 14 14 14 14 14 14 14 13 13 13 13 13 13 12 12 11 11 11 11 11 11 11 11 11 11 11 11 10 10 10 10 9 9 8 8 7 6 6 6 6 6 5 5 5 4 4 4 3 3 3 3 3 2 2 2 2 1 0 -0
14 14 15 15 14 14 14 15 15 15 15 15 15 15 14 14 14 14 14 14 14 14 14 14 14 14 14 14 14 14 14 14 13 13 13 13 13 12 12 12 11 11 11 10 10 11 11 10 11 11 11 10 10 10 10 9 9 8 8 8 7 7 6 6 6 6 5 5 4 4 4 4 3 3 3 3 3 2 2 2 2 2 1 0 -0
12 13 14 14 15 15 15 14 14 15 15 15 15 15 15 15 15 14 14 14 14 14 14 14 14 14 14 14 13 13 13 13 13 13 12 12 12 12 12 11 11 11 10 10 10 10 10 10 10 10 10 9 9 9 9 8 8 8 7 7 7 6 6 6 6 5 5 4 4 4 3 3 3 3 3 2 2 2 2 2 2 2 1 0 0
13 13 14 14 14 14 15 15 14 15 15 15 15 15 15 15 15 14 14 14 14 14 14 14 14 14 13 13 13 13 12 12 12 12 12 12 12 11 11 11 11 10 10 10 10 10 9 9 9 9 8 8 8 8 7 7 7 7 7 6 6 5 5 5 4 4 3 3 3 2 2 2 2 2 2 2 2 2 2 2 2 2 1 1 0
13 13 13 14 14 14 14 14 14 14 15 15 14 14 14 14 14 14 14 14 14 14 14 14 14 14 13 13 13 12 12 11 11 11 11 11 11 11 11 11 11 10 10 9 9 9 8 8 8 7 7 7 7 7 7 6 6 6 5 5 5 4 4 3 3 3 2 2 2 2 2 2 1 1 1 1 1 1 1 1 1 1 1 1 1
13 12 13 13 13 13 14 14 14 14 14 14 14 14 14 14 14 14 14 14 14 14 13 13 13 13 13 13 12 12 11 10 11 11 10 10 10 10 10 10 10 10 10 9 9 8 7 7 6 6 6 6 6 6 6 6 5 5 4 4 3 3 3 2 2 2 2 2 1 1 1 1 1 1 1 1 1 1 0 0 1 1 1 1 1
12 12 12 13 13 13 14 14 14 14 14 14 14 14 14 14 13 13 13 13 13 13 13 13 12 12 12 12 11 11 10 10 10 10 10 10 10 10 10 9 9 9 9 9 8 7 7 6 6 6 6 6 6 6 5 5 4 4 3 3 3 2 2 2 2 2 1 1 1 1 1 1 0 0 0 0 0 0 -0 -0 0 0 0 0 0
12 12 12 12 13 13 13 13 13 13 13 14 13 13 13 13 13 13 13 12 12 12 12 12 11 11 11 11 11 10 9 9 9 9 9 9 9 9 9 9 8 8 8 8 7 7 6 6 6 6 6 5 5 5 4 4 3 3 3 2 2 2 2 2 1 1 1 1 0 0 0 0 -0 -0 -0 -0 -0 -0 -0 -0 0 0 -0 -0 -0
12 12 12 12 13 13 13 13 13 13 13 13 13 13 13 13 13 13 12 12 12 11 11 11 10 10 10 10 9 8 8 8 8 8 8 8 8 8 8 8 7 7 7 7 6 6 6 5 5 5 5 4 4 4 3 3 2 2 2 2 2 1 1 1 1 1 0 0 -0 -1 -1 -1 -1 -1 -1 -1 -1 -1 -0 -0 -0 -0 -0 -0 -1
11 11 12 12 12 12 12 13 13 13 13 13 13 13 13 13 13 13 12 12 11 11 10 10 10 9 9 9 8 7 6 6 7 7 7 7 7 7 7 7 7 7 6 6 5 5 5 4 4 4 3 3 3 3 2 2 2 2 2 1 1 1 1 0 0 0 -0 -1 -1 -1 -2 -2 -2 -1 -1 -2 -2 -2 -1 -2 -1 -1 -1 -1 -1
10 10 10 11 11 11 11 12 12 12 12 12 12 12 12 12 12 12 12 12 12 11 10 9 9 10 9 8 8 8 7 6 6 6 6 6 7 6 6 6 6 6 6 5 5 4 4 4 3 3 3 3 2 2 2 2 1 1 1 1 1 0 0 -0 -0 -0 -1 -1 -2 -2 -2 -3 -3 -3 -2 -3 -3 -3 -2 -2 -2 -2 -2 -2 -2
9 10 10 10 10 11 11 11 11 12 11 11 12 12 12 12 12 12 12 12 12 11 10 10 9 10 10 9 8 8 7 6 6 6 6 6 6 6 6 6 6 5 5 5 4 4 3 3 3 3 2 2 2 2 1 1 1 1 0 0 0 -0 -0 -0 -0 -0 -1 -2 -2 -3 -3 -3 -3 -3 -3 -3 -3 -3 -2 -2 -2 -2 -2 -2 -2
9 9 9 10 10 10 10 11 11 11 11 11 11 12 12 12 12 12 12 12 12 12 12 11 10 10 10 10 9 8 7 7 7 7 6 6 6 6 6 6 5 5 5 4 4 3 3 3 3 2 2 2 1 1 1 0 0 0 -0 -0 -0 -0 -0 -0 -1 -1 -1 -2 -3 -3 -3 -3 -3 -3 -3 -3 -2 -2 -2 -2 -2 -2 -2 -2 -2
8 9 9 9 10 10 10 10 11 11 11 11 11 11 11 11 12 12 12 12 12 12 12 11 11 11 10 10 9 9 8 8 7 6 6 6 6 6 5 5 5 5 4 4 3 3 3 3 2 2 1 1 0 0 0 -0 -0 -0 -0 -0 -0 -0 -0 -1 -1 -1 -2 -2 -3 -3 -3 -3 -3 -3 -3 -2 -2 -2 -2 -2 -2 -2 -2 -2 -2
7 8 8 9 9 9 10 10 10 10 11 10 10 10 10 10 11 11 11 11 11 11 11 10 10 10 10 10 9 8 8 8 7 6 5 5 5 5 5 5 5 4 4 3 3 3 2 2 1 1 1 0 0 0 -0 -0 -0 -0 -1 -0 -0 -1 -1 -1 -1 -2 -2 -2 -2 -2 -3 -3 -2 -2 -2 -2 -2 -2 -2 -2 -2 -2 -2 -2 -2
5 7 8 8 9 9 9 9 10 10 10 10 9 10 10 9 9 9 10 10 10 10 10 10 9 9 9 9 9 8 8 7 6 6 5 5 5 5 5 5 4 4 3 4 3 2 2 1 1 0 0 0 -0 -0 -0 -0 -0 -1 -1 -1 -1 -1 -1 -1 -1 -2 -2 -2 -2 -2 -2 -2 -2 -2 -2 -2 -2 -2 -2 -2 -2 -2 -2 -2 -2
4 5 7 8 8 8 9 9 9 9 9 9 9 9 9 9 8 8 8 8 8 9 9 9 8 8 8 8 8 8 7 7 6 5 5 5 5 5 4 4 3 3 3 3 3 2 1 1 1 0 0 0 -0 -0 -0 -0 -0 -1 -1 -1 -1 -1 -1 -1 -1 -1 -2 -2 -2 -2 -2 -2 -2 -2 -2 -2 -2 -2 -2 -2 -2 -2 -2 -2 -2
3 4 6 7 8 8 8 8 9 9 9 9 9 9 9 9 9 8 7 7 7 8 8 8 8 8 8 7 7 7 7 6 5 5 5 5 5 5 4 3 3 3 3 3 2 2 1 1 0 0 0 -0 -0 -0 -0 -0 -0 -1 -1 -1 -1 -1 -1 -1 -1 -1 -2 -2 -2 -2 -2 -2 -2 -2 -2 -2 -2 -2 -2 -2 -2 -2 -2 -2 -2
3 4 4 5 6 7 7 8 8 8 8 8 9 9 8 8 9 8 8 8 7 7 7 7 7 7 6 6 6 6 6 6 5 5 5 5 4 4 4 3 3 3 3 3 2 2 1 1 0 0 -0 -0 -0 -0 -0 -0 -0 -0 -1 -1 -1 -1 -1 -1 -1 -1 -1 -2 -2 -2 -2 -2 -2 -2 -2 -2 -2 -2 -2 -2 -2 -2 -2 -2 -2
2 3 4 4 5 6 6 7 7 7 7 8 8 9 9 8 8 8 8 8 7 6 6 5 5 5 5 5 6 5 5 5 5 5 5 4 4 4 4 3 3 3 3 2 2 1 1 0 0 0 -0 -0 -0 -0 -0 -0 -0 -0 -1 -1 -1 -1 -1 -1 -1 -1 -2 -2 -2 -2 -2 -2 -2 -2 -2 -2 -2 -2 -2 -2 -2 -2 -2 -2 -2
2 2 3 4 5 5 6 6 6 6 7 7 7 7 7 7 7 7 7 6 6 6 5 4 4 4 4 4 4 5 4 4 4 4 4 4 4 4 4 4 3 3 2 2 1 1 1 0 0 -0 -0 -0 -0 -0 -0 -0 -1 -0 -0 -0 -0 -0 -1 -1 -1 -2 -2 -2 -2 -2 -2 -2 -2 -2 -2 -2 -2 -2 -2 -2 -2 -2 -2 -2 -2
1 2 3 3 4 5 5 6 6 6 7 6 6 5 5 5 5 5 5 5 5 5 4 3 4 4 3 3 3 4 4 4 4 4 3 4 4 4 4 4 3 3 2 2 1 1 1 0 0 -0 -0 -0 -0 -0 -0 -1 -0 -0 -0 -0 -0 -0 -0 -1 -1 -1 -2 -2 -2 -2 -3 -3 -2 -2 -2 -2 -2 -2 -2 -2 -2 -2 -2 -2 -2
1 1 2 3 3 4 5 5 6 6 6 6 5 4 4 4 4 4 4 4 4 3 3 2 3 3 3 3 3 3 3 3 3 3 3 3 4 4 4 3 3 2 2 2 1 1 0 0 0 -0 -0 -0 -0 -0 -1 -0 -0 -0 -0 -0 -0 -0 -0 -1 -1 -2 -2 -2 -3 -3 -3 -3 -2 -2 -2 -2 -2 -2 -2 -2 -2 -2 -2 -2 -2
1 1 1 2 3 3 4 5 5 6 6 6 5 3 3 3 3 3 3 3 2 2 2 1 2 2 3 3 3 3 3 3 3 3 3 3 3 3 3 3 3 2 2 1 1 0 0 0 0 -0 -0 -0 -0 -1 -0 -0 -0 -0 -0 -0 -0 -0 -0 -1 -1 -2 -2 -3 -2 -2 -2 -2 -2 -2 -2 -2 -2 -2 -2 -2 -2 -2 -2 -2 -2
1 1 2 2 2 3 4 4 5 5 5 5 4 3 3 3 3 3 3 2 2 1 1 2 2 3 4 4 3 3 4 4 4 3 3 3 3 3 3 3 3 2 2 1 1 0 0 0 -0 -0 -0 -0 -1 -1 -0 -0 -0 -0 -0 -0 -0 -0 -0 -0 -1 -2 -2 -2 -2 -2 -2 -2 -2 -3 -2 -2 -2 -2 -2 -2 -2 -2 -2 -2 -2
2 2 2 2 2 2 3 4 4 4 4 3 3 2 2 2 2 3 3 2 1 1 2 2 2 3 3 3 3 4 4 4 4 3 3 3 3 3 3 3 2 2 1 1 0 0 0 -0 -0 -0 -0 -0 -1 -0 -0 -0 -0 -0 -0 -0 -0 -0 -0 -0 -1 -1 -2 -2 -2 -1 -2 -2 -2 -2 -2 -2 -2 -2 -2 -2 -2 -2 -2 -2 -2
2 2 2 2 2 2 3 3 3 3 2 2 2 2 1 1 1 2 2 1 1 2 2 2 2 2 3 3 3 3 4 4 4 4 4 4 3 3 3 2 2 1 1 0 0 0 -0 -0 -0 -0 -0 -1 -0 -0 -0 -0 -1 -1 -0 -0 -0 -0 -0 -0 -0 -1 -2 -2 -1 -1 -1 -2 -2 -2 -2 -2 -2 -2 -2 -2 -2 -2 -2 -2 -2
2 2 2 2 2 2 2 2 2 2 1 1 1 1 1 1 1 1 1 1 1 2 2 2 2 2 2 2 3 3 4 4 4 4 4 3 3 3 2 2 1 1 1 0 0 -0 -0 -0 -0 -0 -0 -0 -0 0 -0 -0 -0 -0 -1 -1 -0 -0 -0 -0 -1 -1 -1 -1 -1 -1 -1 -2 -2 -2 -2 -2 -2 -2 -2 -2 -2 -2 -2 -2 -2
2 1 1 1 1 1 1 1 1 1 1 0 0 0 0 1 1 1 1 1 1 1 2 2 2 3 3 3 3 3 3 3 3 3 3 3 2 2 2 1 1 1 0 0 -0 -0 -0 -0 -0 -0 -0 0 0 0 0 -0 -0 -0 -1 -0 -0 -0 -0 -0 -0 -1 -1 -1 -1 -1 -1 -1 -2 -2 -2 -2 -2 -2 -2 -2 -2 -2 -2 -2 -1
1 1 1 0 0 0 0 0 0 0 0 0 0 0 0 0 1 1 1 1 1 1 2 2 3 3 3 3 3 3 3 3 3 3 2 2 2 1 1 1 0 0 -0 -0 -1 -1 -1 -1 -1 -0 -0 0 0 0 0 0 0 -0 -0 -0 -0 -0 -0 -0 -0 -0 -1 -1 -1 -1 -1 -2 -2 -2 -2 -2 -2 -2 -2 -2 -1 -1 -1 -1 -1
0 0 0 0 0 0 -0 -0 -0 0 0 0 0 0 0 0 0 1 1 1 2 2 2 3 3 3 3 3 3 3 2 2 2 2 2 1 1 1 0 0 -0 -0 -1 -1 -1 -1 -1 -1 -1 -0 0 0 1 1 1 0 0 -0 -0 0 0 0 0 0 -0 -0 -0 -1 -1 -1 -1 -1 -2 -2 -2 -2 -2 -2 -2 -1 -1 -1 -1 -1 -1
0 0 0 0 0 0 0 0 0 0 0 0 0 0 1 1 1 1 1 2 2 2 3 3 3 3 3 3 2 2 2 2 1 1 1 0 0 -0 -0 -0 -1 -1 -1 -1 -1 -1 -1 -1 -1 -0 0 0 1 1 1 1 0 0 0 0 0 0 0 0 0 -0 -0 -0 -1 -1 -1 -1 -1 -1 -2 -2 -2 -2 -2 -1 -1 -1 -1 -1 -1
1 1 1 1 1 1 1 1 1 1 1 1 1 1 1 1 1 1 1 2 2 2 2 2 2 2 2 2 2 1 1 1 0 0 -0 -0 -0 -1 -1 -1 -1 -2 -2 -1 -1 -1 -1 -1 -1 -0 0 0 1 1 1 1 0 0 0 0 0 0 0 0 0 0 0 -0 -0 -1 -1 -1 -1 -1 -1 -1 -2 -1 -1 -1 -1 -1 -1 -1 -1
2 2 1 1 1 1 1 1 1 1 1 1 1 0 0 0 0 0 1 1 1 1 1 1 1 1 1 1 1 1 0 -0 -0 -1 -1 -1 -1 -1 -2 -2 -2 -2 -2 -2 -1 -1 -1 -1 -1 -0 0 0 1 1 1 1 1 1 0 0 0 0 0 1 1 1 0 0 -0 -0 -1 -1 -1 -1 -1 -1 -1 -1 -1 -1 -1 -1 -1 -1 -1
2 2 1 1 1 1 1 1 1 0 0 0 0 -0 -0 -0 -0 -0 -0 -0 -0 0 0 0 1 1 0 0 0 -0 -1 -1 -1 -2 -2 -2 -2 -2 -2 -2 -2 -2 -2 -2 -2 -1 -1 -1 -0 0 0 0 0 1 1 1 1 1 0 0 0 0 1 1 1 1 1 0 0 -0 -0 -1 -1 -1 -1 -1 -1 -1 -1 -1 -1 -1 -1 -1 -1
Height
796 799 802 803 804 803 803 806 808 808 810 812 813 813 815 816 817 819 820 821 822 823 823 824 824 825 825 825 825 825 826 827 828 829 830 831 832 833 834 834 835 837 837 838 839 840 841 841 842 842 842 842 842 842 842 842 842 842 842 842 842 843 843 843 844 845 845 844 844 843 842 841 840 839 837 836 835 835 834 833 832 831 831 830 830
794 795 797 799 801 801 802 805 806 806 807 810 812 813 814 815 817 819 820 821 822 822 823 824 824 825 826 826 826 826 826 827 828 828 829 830 831 832 833 834 835 836 837 838 839 840 841 841 842 842 843 843 842 842 842 842 842 843 843 843 843 843 843 843 843 844 844 844 843 843 842 840 839 838 837 836 835 834 833 832 832 831 830 830 829
792 794 796 798 799 800 801 804 805 805 806 808 811 812 814 815 816 818 819 820 822 822 823 824 825 826 826 826 827 827 827 827 827 828 828 829 830 831 832 833 834 835 836 837 838 839 840 841 841 842 842 842 842 842 842 842 842 843 843 843 843 843 843 843 843 843 843 843 843 842 841 840 839 838 837 836 835 833 832 832 831 830 830 829 828
792 793 795 797 798 800 801 803 805 806 806 808 810 813 814 815 816 817 818 820 822 823 824 825 826 826 827 827 827 827 827 827 827 828 828 829 830 830 831 832 833 833 834 836 837 838 839 839 840 841 841 842 842 842 842 842 842 842 842 843 843 843 843 843 842 842 842 842 842 841 841 840 840 838 837 835 834 833 832 831 830 829 829 828 827
791 792 794 796 798 799 801 803 805 806 806 807 809 811 814 816 817 817 818 819 821 823 825 827 828 829 829 828 828 828 828 828 829 829 830 830 830 831 832 832 832 833 833 834 835 836 837 838 839 840 840 841 841 841 841 841 842 842 842 842 842 842 842 842 842 842 841 841 841 841 840 840 839 838 837 835 833 832 831 830 829 828 827 826 826
791 792 793 795 797 799 801 802 803 804 805 805 807 809 812 815 818 818 818 818 819 821 824 827 830 832 831 830 829 829 829 829 829 830 831 831 831 832 832 832 832 833 833 834 834 835 836 837 838 838 839 839 840 840 841 841 841 841 841 841 841 841 841 841 840 840 841 841 840 840 839 839 838 837 836 835 833 831 829 828 827 827 826 824 823
790 791 793 794 796 798 799 800 801 802 803 804 807 809 810 813 817 820 821 820 820 821 823 825 828 830 829 828 829 830 830 828 828 829 830 830 831 831 831 832 832 832 832 833 834 834 835 836 836 837 837 838 838 839 840 840 840 841 841 841 841 840 840 840 839 839 840 840 840 839 839 838 837 836 836 835 833 832 830 827 825 824 824 823 822
790 791 792 794 795 796 797 798 800 801 802 803 806 809 810 811 815 818 820 821 822 823 823 824 825 826 826 826 829 831 831 828 828 828 829 829 830 830 830 830 831 831 832 832 833 833 834 835 835 835 836 836 837 838 838 839 840 840 840 840 840 840 840 840 839 839 839 839 839 839 838 838 837 836 835 833 832 831 831 830 827 825 824 823 822
790 791 792 793 794 795 796 797 799 800 801 801 803 806 809 811 813 816 817 819 820 821 821 822 822 823 824 825 827 830 831 829 827 827 828 828 828 829 829 829 829 830 830 831 832 832 833 833 834 834 834 835 836 836 837 838 839 839 839 839 840 839 839 839 839 839 839 839 838 838 837 836 836 835 834 833 832 832 831 831 829 827 824 822 821
791 791 792 793 794 795 796 797 797 798 799 799 800 803 806 808 810 812 814 816 816 817 818 820 820 821 823 823 824 826 828 828 826 826 826 826 826 826 827 827 827 828 829 829 830 830 831 831 832 832 833 834 834 835 836 836 837 837 838 838 839 839 839 839 839 839 839 838 838 837 836 836 835 835 834 833 833 832 831 829 827 826 824 821 819
791 791 792 793 794 795 796 796 796 797 798 800 800 801 804 806 807 809 811 812 813 816 818 818 819 820 822 823 823 824 826 826 825 825 825 824 824 824 824 825 825 826 826 826 827 827 828 828 829 831 832 832 833 834 834 835 836 836 837 837 837 837 837 837 838 838 838 837 837 837 836 836 835 835 834 833 832 831 830 829 827 825 824 822 819
791 792 793 794 794 795 795 796 796 798 799 800 801 801 803 804 805 807 808 810 814 817 818 817 818 820 820 821 823 824 824 824 823 823 823 822 822 822 822 822 823 823 824 824 824 825 825 826 827 828 830 831 831 833 834 834 835 835 835 836 836 836 836 836 836 836 837 836 836 836 836 835 835 834 834 832 831 830 829 828 827 826 824 824 821
791 792 792 794 795 795 796 797 797 798 799 800 801 801 802 803 804 806 807 810 814 816 817 817 818 818 818 819 821 822 822 821 821 821 821 821 821 821 821 821 821 821 822 822 822 822 823 824 825 826 828 829 831 832 833 833 834 834 834 835 835 835 835 835 835 835 835 835 835 835 835 834 834 833 833 832 830 829 828 826 826 825 823 822 820
792 792 792 793 794 795 796 797 798 799 800 800 801 802 802 803 804 806 808 810 812 814 815 816 816 816 817 818 819 819 819 820 820 820 820 819 819 819 819 819 819 820 820 820 820 821 821 822 823 825 827 828 830 831 832 832 833 833 833 833 833 833 833 833 833 833 833 834 834 834 834 833 832 832 831 830 829 828 827 825 824 823 821 820 818
794 794 793 793 794 795 796 797 798 800 800 801 802 802 803 804 805 806 808 809 811 812 813 814 814 815 815 816 816 817 817 818 818 818 819 819 819 818 818 818 818 818 819 819 819 820 820 821 823 824 826 827 829 830 830 831 831 832 832 832 832 832 832 832 832 832 832 832 833 833 833 832 831 830 829 829 828 827 826 824 823 821 819 817 816
795 795 795 794 794 795 796 797 798 799 800 801 802 803 803 804 805 806 807 808 809 810 811 812 812 813 813 814 814 815 816 816 817 817 818 818 818 818 817 817 817 818 818 819 819 819 820 821 822 824 825 826 827 828 829 829 830 830 831 831 831 832 831 831 831 831 831 831 831 832 831 830 829 828 827 827 826 824 823 822 821 820 817 815 814
794 795 795 795 795 795 796 797 798 799 800 801 802 802 803 804 805 805 806 807 807 808 809 810 811 812 812 813 813 814 815 815 816 816 817 817 817 817 817 817 817 818 818 819 819 820 821 822 822 823 824 825 826 827 827 828 829 829 830 830 831 831 831 830 830 830 830 830 830 830 829 829 828 827 826 825 824 823 822 820 819 818 816 814 812
795 795 794 795 796 796 796 797 798 798 799 800 801 801 802 803 804 805 805 806 807 808 808 809 810 811 812 813 813 814 814 814 815 815 816 816 816 816 817 817 817 818 818 819 820 820 821 822 823 823 824 824 825 826 827 827 828 828 829 830 830 830 830 829 829 829 829 829 829 828 828 827 826 825 824 824 823 822 821 818 817 816 814 813 811
797 796 796 795 795 796 796 797 797 798 798 799 800 801 801 802 803 804 805 806 807 808 809 810 810 811 812 812 813 813 813 814 814 815 816 816 816 816 817 817 818 818 819 819 820 820 821 822 822 823 823 824 825 825 826 827 827 828 828 828 829 828 828 828 828 827 827 827 827 826 826 825 824 823 822 822 821 820 819 817 816 815 812 811 810
798 798 798 797 796 796 795 795 796 797 798 799 800 800 801 802 803 803 804 805 806 807 808 809 810 811 812 812 812 812 812 813 813 814 815 815 816 816 816 817 817 818 819 819 820 821 821 822 822 823 823 824 825 825 826 826 827 827 827 827 827 827 827 827 826 826 826 825 825 824 823 823 822 821 820 819 818 818 817 816 814 813 811 809 808
797 797 797 797 796 796 795 795 795 796 798 798 799 800 801 801 802 803 804 805 806 807 808 809 810 811 811 811 811 811 811 812 813 813 814 815 815 816 816 817 817 818 819 820 820 821 821 822 822 823 824 824 825 825 825 826 826 826 826 826 826 826 826 826 825 825 824 824 823 822 821 820 819 818 817 816 816 815 814 813 812 811 809 807 805
796 796 796 795 795 795 796 795 795 796 797 798 798 799 800 801 802 802 803 804 805 806 807 808 809 810 810 810 810 811 811 812 812 813 813 814 815 815 816 817 817 818 819 819 820 821 821 822 823 823 824 824 824 825 825 825 825 825 825 825 825 825 825 825 824 824 823 822 821 820 819 818 817 816 815 814 813 812 811 810 809 808 807 805 804
793 793 794 794 794 794 795 794 794 795 796 796 797 798 799 800 801 801 802 803 804 805 806 807 808 809 809 809 810 810 811 811 812 812 813 814 814 815 816 816 817 817 818 819 820 820 821 822 823 823 824 823 824 824 824 824 825 825 825 825 825 825 824 824 823 822 821 820 819 818 817 816 814 813 812 811 810 809 807 806 805 804 803 801 801
790 791 791 792 793 793 793 793 793 794 794 795 796 797 797 798 799 800 801 802 803 804 805 806 807 808 808 808 809 810 810 811 812 812 812 813 814 815 815 816 816 817 818 818 819 820 821 822 822 823 823 823 823 824 824 824 825 825 825 825 825 824 824 823 822 821 819 819 817 816 815 814 812 810 809 808 806 805 804 802 801 800 798 797 796
788 788 788 789 789 790 790 790 791 792 792 793 794 795 796 797 797 798 799 800 801 802 803 804 805 806 807 807 808 809 810 811 811 812 812 813 814 814 815 816 816 817 818 819 820 820 821 822 822 822 823 823 823 824 824 825 825 825 825 824 824 823 823 822 821 819 818 817 816 814 813 811 810 808 806 805 803 801 800 798 797 796 794 792 791
787 786 786 786 786 786 787 788 788 788 789 790 791 792 794 795 796 796 797 798 799 800 801 802 803 804 805 806 807 809 811 812 813 813 813 813 814 815 815 815 816 817 818 819 820 820 821 822 822 822 823 823 824 824 824 825 825 824 824 824 823 822 822 820 819 818 817 815 814 812 810 809 807 805 803 802 800 798 797 795 793 792 791 789 787
786 785 784 784 784 784 784 785 786 786 786 787 788 789 790 792 793 794 795 796 796 797 799 800 801 802 803 805 806 807 809 811 812 813 813 814 814 815 815 815 816 817 818 819 820 820 821 822 822 823 823 824 824 824 824 824 824 824 823 823 822 821 820 819 818 817 815 814 812 810 808 806 804 802 800 799 797 796 794 793 791 789 788 787 784
783 783 783 783 782 782 782 783 783 784 784 785 785 786 787 788 790 791 792 793 794 795 796 797 799 800 801 803 804 806 807 809 810 810 812 813 813 814 815 815 816 817 817 818 819 820 820 822 822 823 823 823 824 824 824 824 823 823 822 822 821 820 819 817 816 815 813 811 809 807 805 803 801 800 798 797 795 793 792 791 789 787 786 784 782
780 780 780 780 780 780 780 781 781 781 781 782 782 783 784 785 787 788 789 790 791 792 794 795 796 798 799 800 802 804 805 806 808 809 810 812 813 813 814 815 816 816 817 817 818 819 820 821 822 823 823 823 823 823 823 822 822 822 821 820 819 818 817 815 814 812 810 809 807 805 803 801 800 798 796 794 793 791 790 788 786 785 783 782 779
777 776 776 777 777 777 778 778 779 779 779 779 780 780 781 783 784 785 786 787 789 790 791 793 795 796 797 799 800 802 803 804 806 808 810 811 812 813 814 815 815 816 817 817 818 819 820 821 822 822 822 822 822 822 822 821 820 820 819 818 817 816 814 813 812 810 808 807 805 803 802 800 798 796 794 792 790 788 787 786 784 783 781 779 777
774 773 773 773 773 774 775 776 777 777 777 777 778 778 779 780 781 783 784 785 787 788 790 792 793 795 796 797 799 800 802 803 805 807 808 810 812 813 813 814 815 816 817 817 818 819 820 821 822 822 822 822 822 821 821 820 819 818 817 816 815 814 813 811 810 808 806 805 803 802 800 799 797 795 793 790 788 786 784 783 781 780 778 776 774
770 769 769 770 770 771 772 773 773 774 775 775 776 777 777 778 780 781 782 784 785 786 788 790 792 794 795 796 798 799 801 802 804 806 808 809 811 812 813 814 815 816 817 817 818 819 820 820 821 821 821 821 821 821 820 819 819 818 817 815 814 813 811 810 808 807 805 803 802 800 799 797 795 793 790 788 786 783 781 780 778 777 775 773 771
767 767 766 767 767 768 768 769 770 771 772 773 774 775 776 777 778 780 781 783 784 785 787 789 791 792 794 795 797 798 800 801 803 805 807 809 810 811 812 814 815 816 817 817 818 819 819 820 820 821 821 821 820 820 820 819 818 817 816 815 813 811 810 808 807 805 804 802 801 799 797 795 793 791 788 786 784 781 779 777 775 773 772 769 767
763 764 764 764 764 765 765 766 767 768 769 770 771 773 774 775 776 778 779 781 783 785 786 788 790 791 793 794 796 798 799 800 802 804 806 808 810 810 812 813 815 816 816 817 817 818 819 820 820 820 820 820 820 819 819 818 818 817 815 814 812 810 809 807 806 804 802 801 799 797 795 793 791 789 786 783 781 779 777 774 772 770 769 766 764
758 759 760 761 761 762 763 764 765 766 767 768 769 770 771 773 774 775 776 778 780 782 785 787 788 790 792 794 796 797 799 800 802 803 805 807 809 810 811 813 814 815 816 817 817 818 819 819 819 820 820 819 819 819 818 818 817 816 814 812 811 809 807 806 804 803 801 799 798 796 794 791 789 786 784 781 779 776 774 772 770 768 766 764 762
752 754 756 757 758 759 761 762 763 764 765 766 767 768 769 771 772 773 775 776 778 780 783 785 787 790 792 794 796 797 799 801 802 803 805 807 809 810 811 812 814 815 816 817 817 818 818 819 819 819 819 819 819 818 818 817 816 815 813 812 810 808 806 805 803 801 799 798 796 794 792 789 786 784 782 779 776 774 771 769 767 765 763 761 759
747 748 750 753 755 757 758 760 761 763 764 764 765 766 767 768 770 772 773 775 777 779 781 784 786 788 791 794 796 798 800 802 803 804 805 807 809 810 811 812 813 815 816 816 817 818 818 818 818 819 818 818 818 818 817 817 815 814 813 811 809 807 806 804 802 800 798 796 794 792 789 787 784 782 779 777 774 771 769 767 764 762 760 758 757
742 744 746 749 752 754 755 757 759 761 762 763 764 765 766 767 769 770 772 773 775 778 780 783 785 787 789 793 796 798 800 802 803 804 806 807 809 810 811 812 813 814 815 816 817 817 817 818 818 818 818 818 818 817 817 816 815 813 811 809 808 806 804 802 800 798 796 794 792 790 787 784 782 779 777 774 771 769 766 764 762 759 757 755 754
738 740 743 745 748 751 753 754 756 758 760 761 762 763 765 766 768 769 771 773 775 777 780 782 784 786 788 791 794 797 799 801 802 804 805 807 808 810 811 812 813 814 815 816 816 817 817 817 817 817 817 817 817 817 816 815 814 812 810 808 806 804 802 800 798 796 794 792 790 788 785 782 780 777 775 772 769 767 764 761 759 757 755 752 750
734 737 739 742 745 748 750 752 754 756 758 759 760 762 764 765 766 768 770 772 774 777 780 782 784 785 787 790 793 796 798 800 801 803 805 806 808 810 811 812 813 814 815 815 816 816 817 817 817 817 817 817 817 816 815 814 813 811 809 807 805 803 800 798 796 794 792 790 788 786 783 780 777 775 772 770 767 765 762 759 757 755 752 750 748
731 734 737 740 743 745 747 750 752 754 756 757 759 760 762 764 765 767 769 771 774 777 780 782 785 787 788 791 794 796 798 799 801 803 805 806 808 809 810 812 813 814 814 815 816 816 817 817 817 817 817 817 816 816 814 813 811 810 808 806 804 801 799 797 795 793 791 789 786 784 781 779 776 773 770 768 765 762 760 757 754 752 750 748 745
730 733 736 738 741 744 746 748 750 752 754 756 758 759 762 763 764 765 769 772 775 777 780 783 787 789 791 793 795 797 799 800 801 803 805 806 808 809 810 811 813 814 815 815 816 816 816 817 817 817 817 817 816 814 813 812 810 809 806 804 802 800 797 795 793 791 790 787 785 782 780 777 774 771 768 766 763 760 758 755 752 750 747 745 743
730 732 735 737 740 743 745 747 749 752 754 756 757 759 762 765 765 765 768 772 775 777 780 784 787 790 792 794 796 798 799 801 802 803 805 806 807 809 810 812 813 814 815 815 816 816 816 817 817 817 817 816 815 813 812 811 810 808 805 803 801 799 796 794 792 790 788 786 783 781 778 775 772 769 767 764 761 758 756 753 750 748 745 743 741
731 733 736 738 740 743 745 747 749 751 754 757 758 760 763 766 767 767 770 773 776 779 782 785 788 790 793 794 797 798 800 801 802 804 805 806 808 809 810 812 813 814 815 815 815 816 816 817 817 817 816 815 814 813 812 811 809 807 805 802 800 798 795 793 791 789 787 784 782 779 776 774 771 768 765 762 760 757 754 751 749 746 744 741 739
734 736 738 740 742 744 747 749 750 753 755 758 760 762 764 766 768 770 772 775 778 781 784 787 789 791 793 795 797 798 800 801 803 804 805 807 808 810 811 812 813 814 814 815 815 816 816 816 816 816 815 815 814 812 811 810 808 806 804 802 799 797 795 792 790 788 786 784 781 778 775 772 769 767 764 761 758 756 753 750 748 745 742 740 738
738 740 741 743 745 747 750 751 753 755 757 759 762 764 766 768 770 773 775 778 781 783 786 788 790 792 794 795 797 798 800 802 803 805 806 808 809 810 811 812 813 814 814 814 815 816 816 815 815 815 815 814 813 812 811 809 807 806 804 801 799 797 794 792 790 788 786 784 781 778 775 772 769 766 763 760 757 755 752 749 747 744 742 740 737
744 745 746 748 749 751 753 755 757 758 760 762 764 767 769 771 774 776 779 781 784 786 787 789 791 793 795 796 798 799 801 802 804 805 807 808 810 811 812 812 813 813 814 814 815 815 815 815 815 815 814 813 812 811 810 808 806 805 803 801 798 796 794 792 790 788 786 783 780 777 774 771 768 765 762 759 756 754 751 748 746 744 741 739 737
750 751 752 753 754 756 758 759 761 762 764 766 768 770 773 775 777 780 782 784 786 787 789 791 792 794 795 797 799 800 802 803 805 806 808 809 810 811 812 812 813 813 814 814 815 814 814 814 814 814 813 812 811 810 809 807 806 804 802 800 798 796 794 792 790 788 785 783 780 777 774 771 768 765 762 759 756 753 750 748 745 743 741 739 738
756 756 757 758 759 761 762 763 765 767 769 770 772 774 776 778 780 782 784 785 787 788 790 791 793 795 796 798 799 801 803 804 806 807 809 810 810 811 812 812 812 813 813 814 814 814 813 814 814 813 813 812 811 810 808 807 805 803 801 799 797 795 794 792 790 787 785 783 780 777 774 771 768 765 762 759 756 753 750 748 745 743 741 740 738
761 762 762 763 764 766 767 768 770 771 773 774 776 777 779 781 782 784 785 787 788 790 791 793 794 796 798 799 801 802 804 805 807 808 809 810 810 811 812 812 812 812 813 813 813 813 813 813 813 813 812 811 810 809 808 806 805 803 800 798 796 795 793 791 789 787 785 782 780 777 774 771 768 765 762 759 756 753 751 748 746 744 742 740 739
767 767 768 768 769 770 771 772 774 775 776 777 779 780 782 783 785 786 787 789 790 791 793 795 796 798 799 801 802 803 805 806 807 808 809 810 811 811 811 811 811 811 812 812 812 813 813 813 813 812 812 811 810 809 807 806 804 802 800 798 796 795 793 791 789 787 784 782 780 777 774 771 768 765 762 759 756 754 751 749 746 744 743 741 740
Wind_Speed
20 20 17 13 18 22 22 25 24 17 20 26 26 25 22 18 18 18 19 20 20 19 19 18 17 17 19 18 17 16 15 13 12 11 10 9 8 7 7 7 6 6 6 6 6 5 5 5 5 5 5 4 3 2 2 4 5 6 6 5 6 8 8 8 5 3 5 8 11 13 14 16 16 17 17 17 16 14 13 13 13 13 13 13 13
22 26 26 24 26 25 23 27 26 22 23 27 28 28 25 21 19 20 21 21 21 21 20 20 18 18 19 20 19 18 16 15 14 13 12 11 9 9 8 8 7 7 6 5 5 6 5 4 2 2 2 2 3 2 1 2 3 3 5 5 6 8 9 10 9 6 6 9 12 14 16 17 18 18 19 19 19 17 16 15 15 15 15 14 14
22 27 29 30 28 24 21 25 26 25 25 26 27 27 27 25 23 23 24 23 23 22 21 21 19 18 19 19 20 19 17 16 15 14 13 12 12 11 10 10 9 8 8 7 6 6 6 4 3 2 2 1 1 2 1 1 2 2 4 4 6 7 9 11 12 9 9 11 12 14 17 17 17 19 20 20 19 18 18 17 16 16 16 16 16
18 24 29 31 28 22 19 21 23 23 24 23 23 24 25 26 26 25 25 26 25 24 23 22 21 20 20 19 20 20 19 18 17 15 14 13 12 12 12 11 11 10 9 9 8 7 7 6 5 4 3 3 3 2 2 1 1 1 2 3 4 6 8 10 11 11 11 12 12 13 15 16 17 19 21 21 20 19 19 18 18 18 17 18 18
14 20 27 29 26 20 17 17 18 19 21 21 22 22 21 21 24 27 28 28 26 24 21 19 18 19 20 20 20 19 19 19 17 16 15 14 13 12 12 12 11 11 11 10 10 9 9 8 7 7 6 6 5 4 4 3 3 2 1 2 3 4 6 9 11 11 11 12 12 12 15 17 17 19 21 23 23 22 21 21 20 21 22 21 20
14 18 24 25 21 16 14 15 16 17 19 20 21 21 19 16 18 22 26 28 28 26 24 20 18 18 20 21 22 20 18 18 17 15 14 14 14 13 13 13 13 13 12 12 12 12 12 11 10 10 10 9 8 7 6 6 5 4 3 3 3 4 6 8 9 10 9 10 10 12 15 17 19 21 22 24 23 22 25 26 25 25 27 27 26
14 17 20 21 18 15 14 15 15 15 15 16 17 19 21 19 19 20 22 23 23 24 26 24 22 22 22 23 24 24 21 19 17 16 15 15 16 15 15 15 16 16 15 14 14 14 13 13 13 13 13 12 11 10 9 8 7 6 5 5 5 6 7 8 9 9 8 8 9 12 14 16 19 21 22 24 22 22 26 29 30 31 31 31 32
15 16 17 17 16 16 15 14 13 11 11 11 13 18 23 24 24 24 25 25 22 23 26 27 27 28 26 24 24 27 25 21 19 18 17 17 18 18 17 17 18 18 18 17 17 17 16 16 16 16 16 15 13 12 10 9 8 7 7 7 8 8 9 9 9 8 7 8 9 11 14 16 18 20 22 24 23 22 23 24 26 30 31 32 31
15 15 15 15 15 16 15 13 12 11 10 12 14 18 23 25 24 24 27 28 27 27 30 30 30 29 26 24 24 27 27 24 21 20 20 21 21 21 21 21 21 21 20 20 20 19 19 19 19 19 18 16 15 13 11 10 9 8 8 8 8 8 9 10 9 8 7 8 10 12 14 17 18 20 22 22 20 21 22 22 23 25 29 31 29
13 14 14 14 14 14 14 14 14 12 13 16 17 19 22 23 23 25 27 30 30 30 30 30 29 27 24 24 24 25 26 25 21 20 20 20 20 20 21 22 22 22 22 23 23 23 22 22 22 21 19 18 17 15 13 11 10 9 8 8 8 8 9 8 8 7 7 8 9 11 13 15 17 18 19 18 18 20 22 22 24 25 26 28 26
10 12 13 14 14 14 14 15 15 14 15 17 18 19 22 23 23 24 26 29 29 26 24 25 25 23 20 19 20 22 25 24 20 17 16 16 16 17 18 19 20 20 22 23 25 26 25 24 24 22 21 19 17 15 13 11 10 8 7 7 8 8 8 8 7 7 7 8 9 10 11 13 15 15 15 17 19 20 21 21 22 24 23 21 20
7 8 10 12 13 14 15 16 15 15 16 17 18 20 22 24 24 25 25 26 25 23 23 24 23 20 19 19 19 20 19 16 13 11 11 10 12 13 15 17 18 19 20 21 23 25 26 25 24 23 21 20 17 15 12 10 8 8 7 7 7 7 7 7 6 7 8 8 9 10 10 11 12 12 13 15 18 20 21 21 21 22 21 19 19
5 5 5 6 7 8 11 15 15 15 16 16 16 17 19 21 22 24 24 23 21 22 24 23 20 18 18 19 17 13 9 7 6 6 7 8 9 10 12 14 15 17 18 19 20 22 23 23 23 22 20 18 15 12 10 9 8 7 7 6 6 6 7 7 7 8 8 9 10 11 10 10 10 11 12 13 16 19 21 23 23 23 23 23 23
5 5 4 4 5 6 8 10 12 14 14 13 12 11 12 13 15 16 16 16 15 16 17 16 14 14 14 14 12 9 6 5 4 5 6 7 7 9 10 11 12 14 15 17 18 19 20 20 19 20 19 16 13 11 9 8 7 7 7 7 7 7 8 8 8 9 9 9 10 10 10 10 11 12 13 14 16 19 21 23 24 24 25 26 26
4 4 5 6 7 8 8 8 10 12 11 11 11 10 9 9 10 10 10 10 10 9 9 9 9 9 9 10 9 8 6 4 5 5 5 5 5 7 9 9 10 11 13 14 14 15 15 15 15 17 16 14 12 10 8 8 8 8 8 8 8 9 9 8 7 7 7 8 9 9 10 12 13 15 16 18 18 19 19 20 21 22 24 24 25
2 3 5 7 9 10 10 10 10 11 11 10 11 9 8 8 7 7 6 6 6 5 4 4 4 4 6 8 8 8 7 6 6 6 6 5 5 5 6 7 7 7 7 7 7 8 8 10 13 14 13 12 10 9 9 9 9 9 9 8 8 7 6 5 5 6 7 9 10 11 13 14 16 16 17 17 17 16 16 17 17 19 19 20 21
4 3 5 7 9 10 11 12 12 12 11 10 9 8 7 6 5 4 4 3 3 2 2 2 1 2 4 5 6 7 8 7 7 7 6 6 6 5 3 3 3 3 3 3 5 7 8 10 11 11 10 9 9 9 9 9 9 8 8 7 6 5 4 5 6 8 9 11 11 13 14 14 15 15 14 14 14 14 15 17 17 18 18 16 15
7 3 3 5 8 10 11 14 15 14 12 10 8 8 7 5 4 3 2 1 1 0 1 1 2 3 4 5 6 7 8 8 7 7 6 5 5 4 1 2 4 6 7 8 9 9 9 8 8 8 8 8 7 7 7 6 6 6 6 6 6 6 6 7 9 10 11 12 12 12 13 13 14 15 14 14 13 12 14 17 18 19 19 17 15
8 7 7 4 4 8 11 14 16 15 13 11 9 7 6 4 2 2 2 1 1 1 2 2 3 4 5 6 7 8 8 9 8 6 5 4 4 2 2 4 7 9 9 9 9 8 7 7 6 6 6 5 4 4 4 4 4 4 4 5 6 7 8 9 11 12 13 13 13 13 14 14 14 14 14 14 14 12 14 17 18 20 21 21 19
8 8 7 5 3 2 6 12 17 16 14 11 10 9 7 4 3 4 4 3 3 3 3 3 4 5 7 8 9 9 9 8 7 5 4 4 3 3 4 7 9 10 10 9 9 8 7 6 5 4 3 3 2 1 1 2 3 3 4 5 5 6 8 9 10 11 12 12 13 13 14 14 14 14 15 15 15 14 14 15 16 19 22 23 23
10 9 8 6 4 5 4 5 12 15 14 12 11 11 9 7 6 7 6 6 6 5 4 4 5 6 8 9 10 10 8 7 6 5 4 4 4 5 6 8 9 10 10 9 8 7 7 6 5 4 3 2 1 0 1 2 2 3 4 4 5 6 7 8 8 9 10 12 13 14 15 16 16 17 17 17 17 16 16 16 16 18 20 23 25
11 10 10 8 8 8 6 5 7 10 11 11 10 9 9 9 10 10 11 10 9 8 7 5 5 6 7 8 10 9 8 7 7 6 6 7 7 7 7 7 8 8 8 8 8 7 7 7 6 5 3 2 1 1 2 3 3 4 4 4 5 5 6 7 9 10 12 13 15 16 17 18 19 19 19 19 19 19 19 19 19 19 21 23 24
13 12 12 11 11 10 10 9 9 10 10 9 8 7 7 7 9 12 13 13 11 10 9 7 6 6 6 7 8 8 8 8 8 8 8 8 9 8 7 7 7 7 7 8 8 8 8 7 5 3 2 1 2 3 3 3 3 3 3 3 4 6 7 9 10 12 14 15 17 19 20 20 21 21 21 22 22 21 21 21 21 22 23 23 24
15 14 14 14 15 14 13 13 12 11 10 10 9 7 5 5 5 8 11 12 11 10 9 8 8 7 7 7 7 8 9 10 10 10 10 9 9 8 7 6 6 6 6 7 9 9 8 6 3 1 1 2 2 1 2 2 2 2 2 3 5 7 8 10 12 13 15 17 19 20 21 22 22 23 23 24 24 24 24 24 24 23 24 24 24
15 15 16 16 16 14 14 17 17 16 15 14 12 11 9 7 5 6 8 9 10 10 10 9 9 9 8 7 7 9 11 12 12 11 11 10 8 7 7 6 5 5 7 9 9 8 6 4 2 2 2 3 4 4 4 4 4 3 3 5 7 8 10 11 13 15 17 19 20 21 22 23 23 24 24 25 25 25 26 26 26 25 25 25 25
11 11 13 15 17 16 15 17 20 19 19 19 18 16 15 12 9 7 7 7 8 9 9 10 10 9 8 8 9 11 11 11 11 11 10 9 8 8 7 7 7 7 8 9 8 7 6 5 5 6 7 7 6 5 5 4 4 4 5 7 8 10 11 13 15 17 18 19 20 21 23 24 24 24 24 24 25 25 26 26 27 26 26 26 27
13 12 12 12 13 14 14 16 18 17 16 16 16 15 15 13 11 10 10 9 9 9 10 11 11 10 9 9 10 10 11 12 13 12 11 10 10 9 8 8 8 8 9 9 9 8 9 9 9 8 8 7 5 4 4 4 5 6 7 9 11 12 13 15 17 18 19 20 21 22 24 25 25 25 24 24 25 25 25 25 25 26 25 25 25
17 17 16 14 12 11 11 12 14 15 14 14 14 13 13 12 13 13 12 11 11 11 12 13 13 12 12 12 12 12 14 17 17 15 14 13 12 11 10 9 9 8 8 10 11 11 11 11 9 7 5 5 5 5 5 6 7 9 10 12 14 14 15 16 18 19 20 21 22 23 24 24 25 25 24 24 24 24 24 24 24 25 25 24 23
19 19 18 17 16 15 14 12 12 13 14 15 15 14 13 13 13 13 13 13 12 12 13 14 14 13 12 13 14 15 17 19 18 16 15 14 12 11 11 10 9 9 9 11 13 13 12 9 7 6 5 6 6 7 8 9 10 12 14 15 16 16 17 19 20 21 22 23 23 23 24 24 24 24 24 24 24 25 25 24 24 24 24 23 22
22 21 20 19 19 18 17 17 15 14 13 14 14 14 13 13 13 13 13 13 14 14 13 11 11 11 12 12 13 13 13 15 16 16 15 14 12 11 11 9 8 9 11 12 12 11 10 8 7 7 7 7 8 9 11 12 14 16 17 17 18 18 19 20 22 23 24 24 23 22 23 23 24 24 25 25 25 26 26 25 24 24 23 23 22
24 24 22 21 21 20 19 19 18 17 15 14 13 13 12 11 11 12 12 13 14 15 13 10 8 9 10 12 14 13 10 11 15 17 16 15 14 12 11 9 9 11 12 11 11 10 9 8 9 8 7 7 8 10 11 13 15 17 18 18 18 19 21 22 23 24 25 24 23 23 24 24 24 25 26 26 27 27 27 26 24 23 23 23 23
24 27 25 23 22 21 19 18 18 18 17 16 16 15 14 12 11 10 11 13 14 14 14 12 10 10 10 11 14 15 12 11 15 18 18 17 15 12 11 10 11 12 11 9 9 10 9 8 8 7 6 7 8 10 11 13 15 16 17 19 20 21 22 24 25 25 25 25 24 25 25 26 26 27 27 27 27 27 26 26 24 23 23 23 23
20 23 24 24 23 22 21 19 18 19 19 19 19 18 17 16 14 12 11 12 13 14 14 12 10 10 11 12 13 13 13 14 17 19 19 17 15 14 13 12 12 11 9 7 9 10 8 7 7 6 5 6 8 9 10 12 14 15 16 19 21 23 24 25 26 26 26 25 25 26 27 28 28 28 28 28 27 26 25 25 25 24 23 22 23
22 20 20 20 20 20 20 20 20 20 20 20 20 22 22 21 19 18 16 14 13 13 13 13 11 10 11 13 13 12 13 17 20 21 19 17 15 15 14 14 13 9 6 6 8 8 7 6 6 5 5 6 7 8 9 11 13 15 17 20 22 24 25 26 27 27 27 27 27 28 28 29 29 28 28 27 26 25 25 24 24 23 22 21 22
26 23 20 19 18 18 17 16 17 18 19 20 20 22 24 24 22 22 21 20 18 17 14 14 13 12 12 13 13 14 17 21 22 21 19 18 17 16 15 14 12 8 7 6 7 6 6 5 5 4 4 5 5 7 9 11 13 16 19 21 23 25 26 27 27 27 27 27 28 29 29 29 29 28 27 26 26 25 24 24 23 23 22 22 22
28 26 24 22 20 19 17 15 13 14 16 19 21 22 24 24 23 22 22 21 21 20 17 16 15 14 13 15 16 18 21 23 22 21 20 19 17 16 14 13 11 9 7 6 6 5 5 4 3 3 3 4 5 7 9 11 14 16 19 21 23 25 26 27 27 26 26 26 27 28 28 28 28 27 26 26 25 24 24 24 24 23 23 22 22
27 26 25 23 21 19 19 17 14 12 13 17 20 23 24 24 24 23 22 22 22 21 20 19 20 19 19 20 22 23 23 23 22 21 20 18 15 13 12 11 11 9 8 7 6 5 5 4 2 2 3 3 4 7 9 12 14 17 19 21 23 25 26 26 26 25 25 26 26 27 28 28 28 27 26 25 25 25 24 24 24 24 24 23 22
26 26 26 24 22 20 19 18 16 14 14 16 19 21 22 22 23 23 23 23 23 23 23 24 25 26 26 26 26 26 25 24 23 22 19 16 14 13 12 11 9 8 8 7 6 5 4 3 1 2 2 2 4 7 10 13 15 18 20 22 24 24 25 26 25 25 25 25 26 27 28 28 28 27 26 25 25 25 25 24 24 24 23 22 21
26 25 25 25 24 22 21 19 18 17 16 16 18 19 21 22 22 22 22 23 23 24 25 26 27 29 31 30 28 27 26 25 24 21 18 16 15 14 12 11 9 8 8 7 6 5 4 2 1 1 1 3 5 8 11 13 16 18 21 23 24 25 26 26 25 25 25 25 26 27 28 28 28 28 27 26 25 25 25 25 24 23 23 22 21
24 24 24 24 24 23 22 20 19 18 19 19 19 20 22 23 23 24 24 24 24 25 26 26 28 30 32 31 29 28 27 26 24 21 18 17 15 13 12 10 9 9 8 6 6 5 3 1 0 1 3 4 7 10 12 13 16 19 22 23 24 25 26 25 25 24 24 25 27 27 28 28 29 28 27 27 26 25 25 25 24 24 23 23 23
21 20 20 21 23 23 21 20 19 19 20 21 22 22 24 26 26 25 25 25 25 25 25 26 27 29 29 27 26 26 25 24 23 21 18 16 14 13 12 11 9 8 7 6 6 5 2 0 2 3 3 5 8 10 11 13 17 20 22 23 23 25 25 25 24 24 24 25 27 28 28 29 29 28 27 27 27 26 25 24 24 24 23 22 22
19 17 16 18 21 22 21 20 19 18 19 21 22 23 23 24 26 28 27 26 26 26 26 26 27 26 26 25 24 23 22 22 21 19 17 14 13 13 13 12 9 7 6 5 5 3 1 1 3 2 3 6 8 10 12 14 18 21 22 22 23 24 25 24 24 24 25 26 27 28 29 30 29 28 28 27 27 26 25 24 24 23 22 21 21
17 16 15 16 19 21 21 20 19 19 19 21 22 22 20 21 25 28 28 27 28 28 28 27 26 25 24 23 21 19 19 19 17 15 14 15 14 14 14 12 10 8 6 6 4 2 1 2 2 0 3 6 9 11 12 15 18 21 21 22 23 24 23 23 24 25 25 26 27 29 29 30 29 29 28 27 27 26 25 24 24 23 22 21 20
17 16 15 16 18 19 19 20 20 20 20 20 21 22 22 22 24 26 28 28 28 28 27 27 26 24 22 20 18 17 16 15 14 13 14 16 16 15 14 12 9 8 7 6 5 3 1 1 2 1 3 6 8 10 12 15 18 19 20 22 23 23 22 23 24 25 26 26 28 29 30 30 29 29 28 27 26 25 24 24 23 23 22 21 20
18 18 18 18 18 19 20 21 21 22 21 21 22 22 23 24 25 26 27 27 26 25 25 25 24 23 21 18 15 14 14 14 15 15 16 16 15 14 13 10 9 7 6 6 5 3 2 2 3 3 4 6 8 11 13 15 17 18 19 20 21 21 21 22 23 25 25 26 28 29 29 29 29 28 27 26 25 24 23 23 22 22 21 21 20
22 22 22 22 22 21 21 22 22 22 23 23 23 23 23 24 25 25 25 24 22 22 22 22 21 19 18 15 12 12 14 17 17 16 16 15 14 13 11 9 8 7 6 6 5 4 3 4 4 4 5 7 9 11 13 16 17 18 19 19 19 19 19 20 22 23 24 26 27 27 27 28 27 27 26 25 24 23 22 22 22 21 20 19 18
25 25 24 24 24 23 23 23 23 23 23 22 22 22 22 22 21 21 20 20 20 20 20 20 18 17 15 14 13 14 17 18 17 16 16 15 13 11 9 8 7 7 7 6 5 5 5 5 4 4 6 8 10 12 13 16 18 19 19 18 18 18 18 19 21 22 23 25 26 26 26 26 26 25 24 23 23 22 21 21 21 20 19 18 16
28 27 26 26 26 25 24 24 23 23 22 21 20 20 19 19 19 18 18 18 18 19 18 18 17 15 15 15 16 17 18 18 17 16 15 13 11 9 7 6 7 7 7 7 6 6 6 5 4 4 6 8 10 12 13 16 18 19 19 18 18 17 17 18 20 21 22 24 25 25 25 25 24 24 23 23 22 21 20 20 20 19 18 16 15
28 27 27 26 25 24 24 23 23 22 21 21 20 20 19 19 19 19 19 19 18 18 18 18 17 17 17 18 18 18 18 17 16 15 12 10 8 6 5 5 6 7 7 7 7 7 6 4 4 4 6 8 10 12 13 16 18 19 19 19 18 17 17 18 19 20 21 23 24 25 25 24 24 24 23 22 22 21 20 20 19 18 17 16 14
27 27 26 26 25 24 23 22 23 22 22 22 22 22 22 21 21 20 20 20 20 20 19 19 19 19 18 18 18 17 16 15 14 12 10 8 6 4 4 5 6 7 6 7 7 6 5 4 4 4 5 8 10 12 13 15 17 19 19 19 18 17 17 18 19 20 21 22 24 25 25 24 24 24 24 23 22 21 20 20 19 18 16 15 14
26 26 26 26 25 24 24 23 23 23 23 23 24 23 23 23 23 22 22 22 22 21 20 19 19 18 17 16 16 15 14 13 12 10 8 6 5 4 5 6 6 6 6 6 6 5 5 4 4 4 5 7 10 12 13 14 16 18 19 18 17 16 16 17 19 20 21 22 23 24 24 24 24 24 24 24 23 22 21 20 20 18 16 15 13
Wind_Direction
194 201 206 206 205 207 207 201 194 198 213 217 217 217 216 216 221 225 223 219 215 210 209 208 206 202 199 198 195 190 187 185 185 184 181 178 176 173 170 165 171 168 154 151 158 165 157 133 116 103 99 94 87 88 78 64 57 61 62 48 44 38 29 35 39 4 0 4 1 359 357 359 0 360 359 358 358 358 356 355 356 360 3 5 6
190 200 205 204 205 209 209 202 201 207 213 216 217 218 219 217 218 225 227 222 220 217 215 213 212 210 204 202 201 199 198 195 193 193 191 188 186 186 186 184 189 193 185 176 173 178 180 173 161 133 112 89 67 66 65 55 47 49 49 34 25 23 15 14 18 16 2 360 359 355 354 358 1 1 1 359 356 352 350 349 348 349 349 348 348
188 195 196 194 198 206 209 206 207 207 207 214 219 220 222 222 220 225 228 226 224 222 220 218 218 217 212 207 205 204 205 203 201 201 200 199 198 197 199 200 201 206 205 201 198 197 202 206 210 205 193 204 34 31 15 27 36 36 39 26 13 12 8 4 7 9 1 356 357 356 358 2 3 1 360 358 356 353 351 352 350 347 346 344 342
184 188 188 190 198 207 211 209 210 208 205 213 220 221 226 228 225 226 229 229 228 227 226 225 224 224 221 216 212 211 212 211 209 208 207 209 209 206 208 209 212 217 217 215 215 220 227 228 229 235 233 237 257 282 289 291 310 9 28 15 7 6 4 2 2 0 355 352 356 0 2 4 6 3 357 354 354 354 354 353 350 348 347 347 346
182 181 182 188 198 208 210 208 211 212 210 214 218 219 227 235 233 229 228 228 228 229 232 236 239 237 233 228 222 218 219 219 218 219 219 220 222 223 224 223 224 226 226 226 225 229 236 239 242 247 245 245 251 257 261 262 268 280 323 355 1 1 359 358 358 357 355 353 354 358 2 4 5 5 3 359 354 353 353 352 351 350 347 346 347
184 182 183 190 197 203 204 205 210 214 216 218 217 218 227 245 250 241 233 229 227 228 233 244 256 254 248 245 239 232 227 225 226 228 231 233 233 235 237 239 240 239 236 235 233 235 240 242 243 246 249 251 249 249 256 259 264 275 289 315 332 340 348 355 356 356 357 358 357 356 360 2 2 3 5 3 359 357 353 349 349 351 349 346 346
191 187 188 195 199 197 199 206 212 216 218 218 220 223 230 244 258 259 252 243 236 232 233 238 242 242 244 248 251 251 243 234 233 235 237 242 243 242 244 246 247 248 247 245 242 242 245 245 246 246 249 252 248 245 249 253 260 270 279 297 308 317 332 344 348 350 355 1 0 357 358 359 359 358 358 359 0 1 358 351 346 346 348 346 343
192 191 190 193 195 196 203 208 207 206 209 210 217 224 229 236 246 252 254 254 252 247 242 238 235 236 241 247 256 263 259 248 245 247 249 251 251 251 253 253 253 253 254 253 250 247 247 247 249 249 250 252 250 246 247 251 258 262 272 288 296 306 323 334 338 340 347 356 357 354 351 351 354 354 353 356 357 355 355 350 341 340 341 339 339
190 191 191 192 195 201 203 193 183 190 204 204 208 219 223 227 233 239 243 246 246 245 243 240 235 236 242 248 255 265 267 259 252 253 255 257 259 259 260 260 259 260 260 258 255 253 251 249 249 249 248 249 249 246 245 249 255 258 267 279 287 302 320 327 327 328 334 341 344 344 342 343 349 350 348 353 353 345 342 340 336 335 334 332 334
197 197 196 190 192 199 197 187 184 191 198 196 198 208 213 216 222 229 233 236 236 237 238 238 237 237 242 247 251 259 264 260 255 255 258 263 266 266 265 263 263 264 263 260 256 256 255 252 250 248 246 244 243 239 238 241 247 254 266 274 284 304 319 321 317 313 318 325 329 333 335 335 340 344 342 341 340 334 334 336 333 333 334 333 332
210 209 206 195 193 199 198 195 194 191 191 195 197 201 205 209 214 218 223 227 229 229 229 231 233 235 238 245 254 257 257 257 259 263 266 268 269 268 266 266 266 266 265 261 258 258 257 253 250 247 243 239 233 230 231 236 242 252 263 272 284 302 316 316 306 296 299 305 310 317 318 319 328 335 332 328 328 327 330 332 330 331 334 333 325
212 217 215 207 207 210 206 204 204 200 200 206 209 210 212 213 214 217 222 225 224 224 229 233 236 239 242 249 256 256 254 258 266 272 276 276 274 272 271 272 272 272 271 268 264 260 257 253 250 244 238 232 226 224 226 231 240 250 258 269 285 301 311 307 294 288 292 295 298 302 303 307 316 321 319 319 321 321 323 324 325 325 324 319 310
187 198 203 201 203 205 203 205 209 209 207 209 213 216 219 220 220 222 226 228 227 228 234 241 245 245 242 242 246 249 253 264 278 287 290 290 287 284 282 280 278 277 277 275 271 265 258 253 247 236 226 222 220 222 226 232 241 248 258 272 284 290 291 285 280 282 286 287 290 294 298 301 306 309 312 317 317 318 319 318 319 318 313 309 305
170 176 184 193 192 184 185 191 194 193 194 196 196 196 202 207 211 214 218 222 225 227 231 236 237 235 233 233 238 242 244 257 288 304 300 296 293 289 286 282 277 274 274 275 273 268 261 254 241 224 213 211 215 221 227 236 246 255 267 272 271 274 278 278 279 278 279 282 286 292 299 304 308 310 312 315 316 316 316 315 315 313 309 307 305
178 187 203 218 220 210 199 190 184 182 183 184 182 179 180 181 183 188 196 202 208 212 217 221 223 227 233 239 243 245 247 271 307 318 320 319 307 293 285 282 276 270 270 272 271 267 260 249 231 215 207 206 212 219 227 238 249 256 259 260 264 271 275 276 279 281 285 290 295 300 305 307 310 311 312 314 316 316 314 312 311 310 310 309 309
247 238 221 212 210 210 208 202 192 184 181 179 177 175 175 174 172 174 176 178 183 183 178 187 207 223 235 244 249 255 267 284 298 307 319 333 332 313 291 284 280 272 268 269 263 252 240 222 207 200 200 205 211 220 231 236 240 245 249 257 265 269 271 280 290 295 300 302 302 303 304 305 308 310 313 316 318 320 318 314 316 318 316 313 312
342 284 246 220 207 201 200 201 197 188 182 183 187 186 182 180 178 173 164 156 155 164 169 175 221 249 256 264 270 272 274 279 287 295 305 323 336 334 304 269 251 221 201 189 187 184 180 186 193 193 196 205 213 221 229 233 235 241 249 253 255 258 273 294 301 303 305 305 304 305 305 307 308 310 315 318 319 322 318 314 321 323 316 311 309
8 348 281 239 227 219 207 199 195 193 195 198 196 190 181 178 182 184 191 193 145 130 279 287 295 290 282 275 276 279 277 277 281 289 299 316 330 334 303 195 175 171 169 166 168 172 171 176 189 197 201 204 211 219 228 238 242 245 251 256 262 277 290 299 302 303 304 304 306 308 309 311 312 311 313 314 313 313 307 306 314 314 306 302 299
1 7 3 347 263 241 229 214 203 200 203 204 197 185 173 170 199 237 259 258 242 264 284 294 303 300 288 274 267 264 264 265 266 269 276 292 305 310 238 192 177 174 177 175 173 175 178 181 188 198 202 203 211 226 240 257 262 261 265 274 284 294 299 304 306 306 308 310 312 314 315 316 315 313 312 309 306 302 298 301 307 307 301 297 295
309 314 313 329 348 299 248 228 219 213 208 204 199 193 185 185 232 255 258 261 269 273 275 289 301 302 295 285 273 263 257 254 248 242 242 252 252 230 209 199 188 183 184 184 182 179 179 182 182 183 190 188 197 239 274 286 286 284 287 294 303 306 307 312 314 315 318 319 320 320 320 321 319 316 314 310 306 302 297 298 303 304 304 300 295
296 291 274 269 286 308 309 236 218 215 211 209 208 206 204 212 233 244 241 240 248 252 253 272 294 303 303 294 281 268 256 245 235 225 213 206 209 208 204 200 195 192 188 186 187 183 174 167 159 151 152 150 133 21 327 322 317 318 321 324 326 322 321 322 322 323 324 323 322 322 322 321 320 318 316 314 312 308 303 299 298 299 301 301 297
293 290 280 261 241 239 237 210 198 200 201 202 204 206 213 223 231 233 230 230 232 231 232 247 269 287 298 295 282 266 245 228 221 213 200 194 196 202 203 200 199 201 198 191 183 171 158 151 145 139 138 131 93 355 340 342 341 339 338 337 336 333 330 328 326 325 325 324 324 323 323 323 321 320 319 318 315 313 308 303 298 294 292 293 294
288 283 277 259 236 227 228 219 204 197 197 197 197 197 200 210 222 227 225 223 220 218 223 233 243 252 266 273 267 249 225 209 204 200 198 198 199 201 204 203 203 208 206 191 174 159 150 148 147 140 118 14 335 333 337 339 339 344 345 341 339 335 329 327 327 326 326 326 326 325 325 324 322 320 319 318 315 313 310 305 301 297 293 291 290
286 280 273 259 247 244 242 234 224 217 213 208 206 208 206 203 212 220 220 218 215 214 215 219 223 228 235 244 244 229 210 199 194 194 196 198 198 199 201 200 198 197 185 166 157 154 154 157 166 188 346 354 359 10 34 45 49 45 24 354 341 334 329 329 330 330 330 330 329 326 324 322 320 318 316 315 313 311 309 305 302 300 298 296 293
288 279 273 264 257 253 241 230 229 232 232 232 239 247 252 252 244 231 226 225 223 219 215 214 217 218 219 221 215 198 189 187 187 187 188 190 189 189 190 184 177 169 155 147 148 151 152 156 150 122 102 100 100 97 91 83 69 42 9 347 338 334 334 335 336 335 334 332 328 325 322 321 319 316 313 312 311 310 310 308 307 305 304 302 300
292 285 275 264 260 259 246 228 223 223 224 229 236 240 241 245 246 241 243 245 242 233 223 217 216 216 212 204 192 181 178 182 184 183 182 183 181 178 176 166 154 149 144 141 143 143 137 132 124 116 112 107 100 92 80 63 35 5 353 348 345 345 344 343 340 337 334 331 327 324 321 320 318 316 315 315 314 314 314 313 312 310 309 307 304
280 286 285 274 263 257 245 231 226 224 220 217 216 215 218 224 228 232 238 244 243 236 226 219 217 214 207 198 193 193 196 194 189 184 184 183 178 172 166 156 147 143 137 133 134 134 130 125 119 114 109 100 88 71 52 32 13 3 359 354 349 347 343 339 336 334 332 330 326 323 321 321 320 320 320 319 317 316 316 315 311 309 308 306 301
267 271 274 276 274 269 257 242 235 236 234 227 221 218 220 225 230 235 240 243 243 239 232 227 222 213 203 197 194 197 201 200 196 194 194 190 182 172 164 155 148 142 137 135 135 133 131 127 119 109 94 75 60 45 34 24 13 5 359 352 348 344 340 337 335 335 335 334 330 326 325 324 323 322 321 319 315 313 314 312 307 304 304 302 295
264 262 262 264 266 268 270 266 256 247 241 237 234 231 231 232 236 239 241 243 246 247 245 243 236 220 208 206 203 200 202 204 203 200 196 192 187 179 168 159 152 145 141 142 141 137 133 124 106 83 62 50 45 38 27 16 7 1 357 354 351 348 345 344 343 342 341 338 333 329 327 324 323 321 319 315 311 310 310 307 302 300 299 295 289
264 260 258 256 256 258 261 265 266 262 252 241 231 224 223 225 227 230 232 235 237 237 237 241 239 226 217 217 214 212 213 211 202 194 188 184 182 177 167 159 153 145 143 145 143 136 126 106 81 68 63 57 47 35 22 11 3 360 357 356 355 353 350 349 348 345 341 338 334 329 326 323 320 318 315 310 307 307 307 303 300 297 294 290 286
262 257 255 254 253 252 252 254 256 256 252 240 224 212 208 210 216 222 226 228 228 224 216 212 218 222 223 220 213 209 211 206 195 187 180 176 174 170 162 156 148 144 148 149 137 120 107 94 85 78 72 60 44 29 19 10 4 0 357 355 355 355 352 349 347 343 340 338 334 329 325 322 318 314 311 308 305 304 304 302 299 294 289 286 284
262 253 251 251 252 249 246 245 246 244 238 226 215 210 205 198 197 204 212 214 211 204 198 196 201 207 214 219 214 206 200 192 186 181 175 172 170 164 156 150 143 142 151 150 127 108 97 92 91 84 70 55 40 27 16 8 3 360 356 353 352 352 350 347 344 341 338 335 331 327 324 320 316 312 309 306 303 301 300 299 297 293 289 285 282
266 256 248 245 245 243 241 240 239 236 228 217 210 210 208 200 191 186 188 193 193 190 188 189 192 197 203 211 216 212 201 187 179 174 170 168 166 158 150 143 139 141 146 134 114 106 99 93 90 83 66 49 34 22 13 4 359 357 355 351 348 347 346 345 341 338 335 332 329 325 322 318 313 309 306 303 301 298 296 296 295 292 289 285 282
263 260 250 241 237 235 234 234 233 229 224 218 214 212 210 207 201 193 184 178 178 180 182 181 182 192 202 204 205 205 196 182 173 169 167 165 161 156 149 142 137 137 132 113 105 107 106 99 95 85 62 40 26 14 5 0 358 355 353 350 347 345 343 341 338 336 334 331 327 323 318 314 311 306 303 301 301 298 296 295 294 292 288 286 284
254 254 251 244 239 235 233 233 232 227 222 218 216 214 210 207 204 198 193 186 179 175 176 178 180 187 197 198 195 192 184 175 168 166 164 160 156 153 148 143 140 135 125 114 108 110 113 112 105 86 50 27 16 7 1 0 359 356 353 349 346 342 340 338 337 335 332 328 323 318 314 311 308 305 303 302 300 298 296 295 295 292 289 287 286
247 248 247 244 243 241 240 240 239 236 231 226 221 217 214 211 206 201 196 190 181 173 171 173 174 176 182 185 183 179 173 168 163 160 158 156 156 156 153 150 147 142 135 132 127 125 128 127 111 73 30 11 10 7 5 3 359 354 351 347 342 339 338 336 333 330 327 323 319 315 312 310 309 308 307 303 301 299 298 297 296 294 291 289 287
240 239 238 237 237 237 236 236 236 241 245 238 227 218 213 209 205 198 191 184 177 172 169 169 166 163 165 169 171 168 165 161 158 156 155 155 157 159 158 153 148 146 147 149 148 145 144 140 119 36 2 7 19 13 6 1 355 349 347 344 340 338 335 333 330 327 323 320 318 315 313 311 312 312 310 306 304 303 302 301 299 297 295 293 289
236 234 232 230 229 228 228 227 226 231 241 242 232 220 210 202 197 191 184 177 173 170 167 166 164 161 160 161 164 164 161 159 157 155 155 157 160 160 157 151 146 148 152 153 156 158 156 153 149 338 345 21 31 15 2 354 349 346 344 342 339 336 334 333 331 329 325 321 319 317 315 314 316 316 313 309 306 306 306 305 303 300 298 296 291
232 231 229 227 224 221 220 220 220 223 228 231 227 216 205 195 188 182 176 171 169 167 164 162 162 161 159 160 162 162 161 160 158 155 156 159 162 161 160 156 153 154 157 159 165 169 165 166 279 337 38 56 30 9 355 348 346 345 344 340 336 335 335 333 331 329 326 322 321 320 319 319 319 319 317 313 310 308 308 307 306 302 300 297 294
223 224 225 223 219 216 215 214 216 219 220 221 218 208 199 192 185 178 173 169 165 162 161 161 160 160 160 161 163 163 162 160 159 157 158 161 165 168 169 168 164 163 164 166 170 171 171 188 7 105 91 50 15 357 348 346 346 344 342 339 336 335 335 334 331 328 326 325 325 324 323 322 322 321 320 316 314 312 311 310 309 307 304 300 298
210 213 218 217 214 211 207 205 208 213 213 211 207 200 195 190 183 175 169 164 159 157 157 158 158 159 160 162 164 166 165 162 159 159 159 163 169 174 176 176 173 170 171 172 172 175 185 185 132 117 73 23 359 349 346 347 346 342 340 338 337 336 335 335 333 330 329 329 330 329 327 326 325 322 319 318 318 318 316 314 314 312 308 306 304
192 199 206 206 204 201 198 195 198 202 202 199 194 191 189 182 174 168 164 160 156 154 152 153 156 159 161 163 167 170 169 164 161 162 167 172 178 179 178 178 175 171 171 172 168 167 170 155 147 113 28 360 350 349 349 347 343 340 339 337 336 336 336 336 335 333 333 334 334 332 331 330 328 325 322 322 322 321 320 319 319 317 314 312 312
177 184 186 187 188 189 188 185 184 186 187 184 180 181 180 172 164 160 157 153 152 150 150 152 158 162 163 166 170 172 168 165 167 173 179 182 180 176 174 172 169 167 169 169 165 157 155 166 168 43 353 349 350 351 349 344 340 339 338 337 336 336 336 335 336 337 337 337 336 336 335 334 331 327 325 325 324 323 322 322 322 322 320 319 319
157 158 159 162 166 169 170 170 169 171 171 166 162 163 164 159 153 149 147 147 148 150 152 157 161 163 164 166 169 169 169 171 175 178 176 174 172 170 170 170 169 172 178 181 181 184 190 195 215 281 329 344 350 351 347 343 342 340 339 337 336 336 336 337 339 341 341 339 337 338 337 335 332 329 327 327 326 325 324 325 326 326 326 326 326
130 133 134 136 138 140 144 149 152 153 152 147 142 144 147 146 144 142 144 146 150 154 159 163 165 165 164 164 167 173 177 177 174 170 167 167 167 167 168 169 174 183 191 194 196 202 224 237 245 278 321 341 351 352 348 346 346 344 342 339 337 336 337 340 342 344 343 340 339 339 339 338 335 331 329 329 329 327 326 329 331 332 331 331 330
108 114 117 118 119 121 125 130 133 135 136 135 134 134 136 138 140 142 146 150 155 160 162 163 163 163 161 160 163 170 172 169 167 164 163 164 165 166 168 175 185 195 200 198 197 206 233 244 256 295 330 345 353 354 350 349 349 348 345 343 339 337 340 343 344 344 343 340 340 342 342 340 338 336 334 334 334 334 334 337 339 339 338 337 336
93 98 102 106 108 111 113 117 120 122 123 125 127 129 132 136 140 144 148 153 156 158 158 159 161 163 162 161 161 161 161 160 161 161 161 163 165 166 172 183 195 200 201 198 198 213 236 247 267 313 339 350 355 354 352 352 352 350 349 347 345 342 342 344 345 344 342 341 343 346 346 345 343 342 341 341 340 340 342 345 348 348 346 345 346
87 90 93 97 100 103 105 108 110 112 115 119 123 127 131 136 140 142 146 149 151 152 154 156 159 161 161 160 159 158 158 157 158 159 160 162 163 165 173 187 196 199 198 195 201 221 239 252 277 320 344 354 357 356 356 356 354 353 352 351 350 348 346 345 345 345 344 344 347 349 350 351 350 349 349 348 346 346 349 352 354 354 352 352 356
89 91 94 96 97 99 102 105 107 110 114 118 121 123 126 130 133 135 139 141 143 145 148 150 150 152 153 154 154 155 156 156 156 156 156 156 158 164 175 186 189 190 192 199 213 230 242 254 278 314 345 358 360 359 359 358 356 356 355 354 352 350 348 347 347 346 345 346 349 352 353 355 356 356 357 356 354 354 357 360 1 1 358 357 360
91 94 97 99 101 104 107 109 111 113 115 117 117 117 119 121 123 126 130 132 132 134 137 140 142 144 146 147 149 151 153 153 152 151 150 150 152 161 171 175 178 184 192 205 218 228 236 248 273 312 348 1 1 360 359 358 359 360 359 356 353 350 347 347 350 350 348 348 351 353 355 358 360 1 3 3 2 1 3 5 8 8 5 1 2
94 96 98 100 103 107 109 110 111 112 113 115 115 115 115 116 117 120 123 124 125 127 130 133 136 138 141 143 146 149 150 149 148 145 144 144 145 154 168 176 179 183 191 204 215 221 229 247 273 313 348 359 359 358 356 357 360 2 2 359 354 349 345 347 352 354 353 352 353 354 357 360 2 4 6 8 7 6 6 8 11 13 12 9 8